Time,TemperatureF,DewpointF,PressureIn,WindDirection,WindDirectionDegrees,WindSpeedMPH,WindSpeedGustMPH,Humidity,HourlyPrecipIn,Conditions,Clouds,dailyrainin,SoftwareType,DateUTC
2013-06-22 10:02:00,63.0,-99.9,-100.00,ESE,113,5.0,9.0,-999,0.00,,,0.01,,2013-06-22 15:02:00,
2013-06-22 10:12:00,62.0,-99.9,-100.00,East,90,5.0,9.0,-999,0.00,,,0.01,,2013-06-22 15:12:00,
2013-06-22 10:34:00,62.0,-99.9,-100.00,NW,315,2.0,20.0,-999,0.00,,,0.01,,2013-06-22 15:34:00,
2013-06-22 10:43:00,62.0,-99.9,-100.00,NE,45,2.0,13.0,-999,0.00,,,0.01,,2013-06-22 15:43:00,
2013-06-22 10:53:00,62.0,-99.9,-100.00,South,180,6.0,14.0,-999,0.00,,,0.01,,2013-06-22 15:53:00,
2013-06-22 11:02:00,63.0,-99.9,-100.00,SSE,158,2.0,9.0,-999,0.00,,,0.01,,2013-06-22 16:02:00,
2013-06-22 11:12:00,62.0,-99.9,-100.00,WSW,248,1.0,7.0,-999,0.00,,,0.01,,2013-06-22 16:12:00,
2013-06-22 11:34:00,63.0,-99.9,-100.00,WSW,248,1.0,3.0,-999,0.00,,,0.01,,2013-06-22 16:34:00,
2013-06-22 11:43:00,63.0,-99.9,-100.00,WSW,248,1.0,3.0,-999,0.00,,,0.01,,2013-06-22 16:43:00,
2013-06-22 11:52:00,65.0,-99.9,-100.00,WSW,248,1.0,3.0,-999,0.00,,,0.01,,2013-06-22 16:52:00,
2013-06-22 12:02:00,67.0,-99.9,-100.00,WSW,248,0.0,3.0,-999,0.00,,,0.01,,2013-06-22 17:02:00,
2013-06-22 12:11:00,67.0,-99.9,-100.00,WSW,248,0.0,3.0,-999,0.00,,,0.01,,2013-06-22 17:11:00,
2013-06-22 12:22:00,67.0,-99.9,-100.00,WSW,248,0.0,2.0,-999,0.00,,,0.01,,2013-06-22 17:22:00,
2013-06-22 12:34:00,68.0,-99.9,-100.00,WSW,248,0.0,3.0,-999,0.00,,,0.01,,2013-06-22 17:34:00,
2013-06-22 12:43:00,69.0,-99.9,-100.00,NE,45,0.0,3.0,-999,0.00,,,0.01,,2013-06-22 17:43:00,
2013-06-22 12:52:00,69.0,-99.9,-100.00,NE,45,0.0,3.0,-999,0.00,,,0.01,,2013-06-22 17:52:00,
2013-06-22 13:02:00,72.0,-99.9,-100.00,NNE,23,1.0,5.0,-999,0.00,,,0.01,,2013-06-22 18:02:00,
2013-06-22 13:12:00,72.0,-99.9,-100.00,NNE,23,0.0,5.0,-999,0.00,,,0.01,,2013-06-22 18:12:00,
2013-06-22 13:34:00,71.0,-99.9,-100.00,NNW,338,1.0,3.0,-999,0.00,,,0.01,,2013-06-22 18:34:00,
2013-06-22 13:43:00,72.0,-99.9,-100.00,NNW,338,0.0,3.0,-999,0.00,,,0.00,,2013-06-22 18:43:00,
2013-06-22 13:52:00,72.0,-99.9,-100.00,NNE,23,2.0,5.0,-999,0.00,,,0.00,,2013-06-22 18:52:00,
2013-06-22 14:01:00,71.0,-99.9,-100.00,NNW,338,0.0,5.0,-999,0.00,,,0.00,,2013-06-22 19:01:00,
2013-06-22 14:12:00,71.0,-99.9,-100.00,ENE,68,1.0,6.0,-999,0.00,,,0.00,,2013-06-22 19:12:00,
2013-06-22 14:33:00,74.0,-99.9,-100.00,NE,45,0.0,6.0,-999,0.00,,,0.00,,2013-06-22 19:33:00,
2013-06-22 14:43:00,74.0,-99.9,-100.00,NNE,23,1.0,6.0,-999,0.00,,,0.00,,2013-06-22 19:43:00,
2013-06-22 15:02:00,77.0,-99.9,-100.00,ESE,113,2.0,7.0,-999,0.00,,,0.00,,2013-06-22 20:02:00,
2013-06-22 15:11:00,78.0,-99.9,-100.00,SE,135,2.0,5.0,-999,0.00,,,0.00,,2013-06-22 20:11:00,
2013-06-22 15:34:00,78.0,-99.9,-100.00,East,90,1.0,7.0,-999,0.00,,,0.00,,2013-06-22 20:34:00,
2013-06-22 15:43:00,77.0,-99.9,-100.00,ESE,113,5.0,7.0,-999,0.00,,,0.00,,2013-06-22 20:43:00,
2013-06-22 16:01:00,76.0,-99.9,-100.00,South,180,2.0,8.0,-999,0.00,,,0.00,,2013-06-22 21:01:00,
2013-06-22 16:12:00,76.0,-99.9,-100.00,SSE,158,2.0,6.0,-999,0.00,,,0.00,,2013-06-22 21:12:00,
2013-06-22 16:34:00,76.0,-99.9,-100.00,ESE,113,2.0,8.0,-999,0.00,,,0.00,,2013-06-22 21:34:00,
2013-06-22 16:43:00,73.0,-99.9,-100.00,ESE,113,2.0,9.0,-999,0.00,,,0.00,,2013-06-22 21:43:00,
2013-06-22 17:02:00,73.0,-99.9,-100.00,SE,135,2.0,8.0,-999,0.00,,,0.00,,2013-06-22 22:02:00,
2013-06-22 17:12:00,71.0,-99.9,-100.00,SE,135,2.0,7.0,-999,0.00,,,0.00,,2013-06-22 22:12:00,
2013-06-22 17:33:00,71.0,-99.9,-100.00,SE,135,1.0,3.0,-999,0.00,,,0.00,,2013-06-22 22:33:00,
2013-06-22 17:43:00,71.0,-99.9,-100.00,SE,135,0.0,3.0,-999,0.00,,,0.00,,2013-06-22 22:43:00,
2013-06-22 18:02:00,71.0,-99.9,-100.00,SE,135,1.0,5.0,-999,0.00,,,0.00,,2013-06-22 23:02:00,
2013-06-22 18:11:00,71.0,-99.9,-100.00,SE,135,2.0,6.0,-999,0.00,,,0.00,,2013-06-22 23:11:00,
2013-06-22 18:22:00,71.0,-99.9,-100.00,SE,135,1.0,6.0,-999,0.00,,,0.00,,2013-06-22 23:22:00,
2013-06-22 18:34:00,70.0,-99.9,-100.00,ESE,113,2.0,5.0,-999,0.00,,,0.00,,2013-06-22 23:34:00,
2013-06-22 18:43:00,70.0,-99.9,-100.00,SE,135,3.0,6.0,-999,0.00,,,0.00,,2013-06-22 23:43:00,
2013-06-22 19:01:00,70.0,-99.9,-100.00,SSW,203,1.0,6.0,-999,0.00,,,0.00,,2013-06-23 00:01:00,
2013-06-22 19:11:00,69.0,-99.9,-100.00,South,180,2.0,6.0,-999,0.00,,,0.00,,2013-06-23 00:11:00,
2013-06-22 19:34:00,70.0,-99.9,-100.00,South,180,0.0,3.0,-999,0.00,,,0.00,,2013-06-23 00:34:00,
2013-06-22 19:42:00,70.0,-99.9,-100.00,SSE,158,1.0,5.0,-999,0.00,,,0.00,,2013-06-23 00:42:00,
2013-06-22 19:53:00,70.0,-99.9,-100.00,SSE,158,2.0,5.0,-999,0.00,,,0.00,,2013-06-23 00:53:00,
2013-06-22 20:01:00,70.0,-99.9,-100.00,South,180,3.0,9.0,-999,0.00,,,0.00,,2013-06-23 01:01:00,
2013-06-22 20:12:00,69.0,-99.9,-100.00,SE,135,2.0,7.0,-999,0.00,,,0.00,,2013-06-23 01:12:00,
2013-06-22 20:22:00,69.0,-99.9,-100.00,SE,135,2.0,7.0,-999,0.00,,,0.00,,2013-06-23 01:22:00,
2013-06-22 20:32:00,68.0,-99.9,-100.00,SE,135,2.0,7.0,-999,0.00,,,0.00,,2013-06-23 01:32:00,
2013-06-22 20:42:00,68.0,-99.9,-100.00,SE,135,2.0,7.0,-999,0.00,,,0.00,,2013-06-23 01:42:00,
2013-06-22 20:52:00,68.0,-99.9,-100.00,SE,135,2.0,7.0,-999,0.00,,,0.00,,2013-06-23 01:52:00,
2013-06-22 21:01:00,68.0,-99.9,-100.00,SE,135,2.0,7.0,-999,0.00,,,0.00,,2013-06-23 02:01:00,
2013-06-22 21:11:00,68.0,-99.9,-100.00,SE,135,2.0,7.0,-999,0.00,,,0.00,,2013-06-23 02:11:00,
2013-06-22 21:31:00,67.0,-99.9,-100.00,South,180,2.0,7.0,-999,0.00,,,0.00,,2013-06-23 02:31:00,
2013-06-22 21:41:00,67.0,-99.9,-100.00,South,180,2.0,7.0,-999,0.00,,,0.00,,2013-06-23 02:41:00,
2013-06-22 21:52:00,67.0,-99.9,-100.00,South,180,2.0,7.0,-999,0.00,,,0.00,,2013-06-23 02:52:00,
2013-06-22 22:01:00,67.0,-99.9,-100.00,SSW,203,3.0,6.0,-999,0.00,,,0.00,,2013-06-23 03:01:00,
2013-06-22 22:11:00,67.0,-99.9,-100.00,SSW,203,3.0,6.0,-999,0.00,,,0.00,,2013-06-23 03:11:00,
2013-06-22 22:21:00,67.0,-99.9,-100.00,SSW,203,3.0,6.0,-999,0.00,,,0.00,,2013-06-23 03:21:00,
2013-06-22 22:31:00,66.0,-99.9,-100.00,SSW,203,2.0,6.0,-999,0.00,,,0.00,,2013-06-23 03:31:00,
2013-06-22 22:41:00,66.0,-99.9,-100.00,SSW,203,2.0,6.0,-999,0.00,,,0.00,,2013-06-23 03:41:00,
2013-06-22 22:52:00,66.0,-99.9,-100.00,SSW,203,2.0,6.0,-999,0.00,,,0.00,,2013-06-23 03:52:00,
2013-06-22 23:01:00,64.0,-99.9,-100.00,SSE,158,1.0,7.0,-999,0.00,,,0.00,,2013-06-23 04:01:00,
2013-06-22 23:11:00,64.0,-99.9,-100.00,SSE,158,1.0,7.0,-999,0.00,,,0.00,,2013-06-23 04:11:00,
2013-06-22 23:21:00,64.0,-99.9,-100.00,South,180,2.0,7.0,-999,0.00,,,0.00,,2013-06-23 04:21:00,
2013-06-22 23:31:00,64.0,-99.9,-100.00,South,180,2.0,7.0,-999,0.00,,,0.00,,2013-06-23 04:31:00,
2013-06-22 23:42:00,64.0,-99.9,-100.00,South,180,2.0,7.0,-999,0.00,,,0.00,,2013-06-23 04:42:00,
2013-06-22 23:52:00,64.0,-99.9,-100.00,South,180,2.0,7.0,-999,0.00,,,0.00,,2013-06-23 04:52:00,